H-2A R/B, 42739

Orbit data source: Space-Track

H-2A R/B, 42739 is space debris in HEO originally from a launch on Thu, 01 Jun 2017 UTC launched from the Tanegashima Space Center (TNSTA). Debris objects in space refer to the collection of defunct objects orbiting the Earth. Examples of debris include non-operational satellites, rocket bodies, and fragments generated from explosions, collisions, or faulty payload assembly.

Loading next visibility...
Identifier
42739, 2017-028B
Orbit
HEO
Country
Flag of JPJP / JPN
Related business
Manufacturer
MHI Tobishima
Mission
Spacecraft
Bus & Motor
H-2A STAGE 2, Unknown motor
Mass
4,000 kg wet, 4,000 kg dry
Launch date (UTC)
2017-06-01 (9 years ago)
Launch vehicle
Unknown
Launch site
Tanegashima Space Center (TNSTA)
Object type
Payload
Rocket body
Debris
Shape & HBR
Cyl, 4.6 m
Radar Cross Section
35.186 m², Large (>1 m²)

Expand to show TLE details & history
Last TLE update: 3 days ago

TLE from 3 days ago
0 H-2A R/B
1 42739U 17028B   26170.76004586  .00000309  00000-0  49995-3 0  9996
2 42739  31.4188 169.0255 7134400 220.8319  54.7198  2.42486707 77541
Epoch: 2026-06-19T18:14Z
TLE epoch observation values (Epoch: 2026-06-19T18:14:27.962Z)
Latitude
-0°
Longitude
-12.65185°
Altitude
18,574.675 km
Speed
3.862 km/s
True Right ascension
11h 15m 47s
True Declination
0° 00' 00"
Sunlit
Object was in daylight at epoch
Visualization orbit readout
Latitude
Unknown
Longitude
Unknown
Altitude
Unknown
Speed
Unknown
Apparent Right ascension
Unknown
Apparent Declination
Unknown
Sunlit
N/A
Visualization observer readout
Local Sidereal Time
21:30:38
Azimuth
Unknown
Elevation
Unknown
Doppler factor
Unknown
Orbital elements
Apogee altitude
33,727.54 km
Perigee altitude
329.237 km
Semi-major axis
23,406.525 km
Eccentricity
0.71344
Inclination
31.4188°
RAAN
169.0255°
Arg. of periapsis
220.8319°
True anomaly
139.18719°
Mean anomaly
54.7198°
Eccentric anomaly
95.41451°
Mean motion
0.60609 °/min
Orbital period
593.97 mins
BSTAR
0.00049995
Loading maneuver chart data...
Computing Atmospheric mass density...
Loading historical data...
Loading historical data...
Loading historical data...
Loading historical data...
Loading historical data...
Loading historical data...
Loading historical data...
Other satellites on launch #28 in the year 2017 (2017-06-01 UTC)

Documentation

Showing up to 5 results
|